This is the latest recevied weather packets stored in our database for station/object OK1FET-4. If no packets are shown the sender has not sent any weather packets the latest 10 day(s).
| Time | Temp. | Humidity | Pressure | Rain* | Wind** | Luminosity | Snow |
|---|---|---|---|---|---|---|---|
| 1788330521 | 14.44° C | 79% | 1022.5 hPa | - | - | - | - |
| 1788330220 | 14.44° C | 79% | 1022.5 hPa | - | - | - | - |
| 1788329920 | 13.89° C | 79% | 1022.6 hPa | - | - | - | - |
| 1788329619 | 13.89° C | 79% | 1022.6 hPa | - | - | - | - |
| 1788329319 | 14.44° C | 82% | 1022.6 hPa | - | - | - | - |
| 1788329018 | 14.44° C | 79% | 1022.6 hPa | - | - | - | - |
| 1788328718 | 14.44° C | 79% | 1022.5 hPa | - | - | - | - |
| 1788328417 | 14.44° C | 81% | 1022.5 hPa | - | - | - | - |
| 1788328117 | 13.89° C | 82% | 1022.5 hPa | - | - | - | - |
| 1788327816 | 13.89° C | 82% | 1022.6 hPa | - | - | - | - |
| 1788327528 | 13.89° C | 81% | 1022.5 hPa | - | - | - | - |
| 1788327215 | 13.89° C | 83% | 1022.5 hPa | - | - | - | - |
| 1788326915 | 13.33° C | 84% | 1022.4 hPa | - | - | - | - |
| 1788326615 | 13.33° C | 85% | 1022.4 hPa | - | - | - | - |
| 1788326314 | 12.78° C | 87% | 1022.4 hPa | - | - | - | - |
| 1788326014 | 12.22° C | 88% | 1022.4 hPa | - | - | - | - |
| 1788325714 | 12.22° C | 88% | 1022.3 hPa | - | - | - | - |
| 1788325414 | 11.67° C | 87% | 1022.2 hPa | - | - | - | - |
| 1788325113 | 11.67° C | 87% | 1022.1 hPa | - | - | - | - |
| 1788324813 | 11.67° C | 88% | 1022.1 hPa | - | - | - | - |
| 1788324513 | 11.11° C | 88% | 1022.1 hPa | - | - | - | - |
| 1788324213 | 11.11° C | 87% | 1022 hPa | - | - | - | - |
| 1788323913 | 11.11° C | 86% | 1022 hPa | - | - | - | - |
| 1788323613 | 11.67° C | 86% | 1021.9 hPa | - | - | - | - |
| 1788323313 | 11.67° C | 86% | 1021.9 hPa | - | - | - | - |
* Rain since midnight (hover to see other rain measurements)
** Current wind speed in m/s (hover to see current wind gust speed)